Simultaneous Nadir Overpasses (SNOs) Predictions

Prediction of SNOs between NOAA-20 and PACE Satellite Orbit:

Table of predicted SNOs for the next 14.0 days since TLE Epoch: 2/13/2025
Index Date (NOAA-20) Time (NOAA-20) Lat,Lon (NOAA-20) SZA (NOAA-20 ) Date (PACE) Time (PACE) Lat,Lon (PACE) SZA (PACE ) Distance(km) Time Diff (sec)
1 02/14/2025 23:10:36 79.83, 154.80 94.90 02/14/2025 23:11:46 79.83, 154.82 94.86 0.37 70
2 02/15/2025 00:01:14 -79.63, -36.06 85.48 02/15/2025 00:00:52 -79.63, -36.03 85.47 0.62 22
3 02/17/2025 04:27:43 -79.75,-103.74 86.02 02/17/2025 04:28:36 -79.76,-103.89 86.02 3.06 53
4 02/17/2025 05:18:22 79.55, 65.37 93.61 02/17/2025 05:17:41 79.55, 65.31 93.64 1.36 41
5 02/19/2025 09:44:52 79.71, -2.62 93.12 02/19/2025 09:45:25 79.71, -2.73 93.12 2.30 33
6 02/19/2025 10:35:30 -79.50, 166.47 87.26 02/19/2025 10:34:31 -79.51, 166.40 87.22 1.64 59
7 02/21/2025 15:02:01 -79.69, 98.20 87.71 02/21/2025 15:02:15 -79.69, 98.21 87.73 0.58 14
8 02/23/2025 20:19:10 79.66,-160.75 91.41 02/23/2025 20:19:03 79.65,-160.73 91.41 0.43 7
9 02/26/2025 00:45:41 79.85, 130.84 90.95 02/26/2025 00:46:46 79.85, 130.95 90.90 2.17 65



Historial Predications of SNOs between NOAA-20 and PACE
